Location: Ellingshausen
(50.5460°N, 10.4723°E)
Time: 23:35:03
(UTC+00:00)

Timation 2 Rocket - Pass Details

Date: 18 January 2026
Orbit: 907 x 1072 km, 70.0° (Epoch: 17 February)

Event Time Altitude Azimuth Distance (km) Brightness Sun altitude
Rises 04:42:49 0° 206° (SSW) 3,776 6.9 -22.9°
Reaches altitude 10° 04:45:27 10° 205° (SSW) 2,806 6.2 -22.5°
Maximum altitude 04:52:01 83° 119° (ESE) 1,006 4.0 -21.4°
Drops below altitude 10° 04:58:19 10° 33° (NNE) 2,705 6.6 -20.4°
Sets 05:00:49 0° 32° (NNE) 3,632 7.3 -20.0°
